Sitka, AK

7:14 AM AKDT on May 28, 2017 (GMT -0800)
Sitka Rocky Gutierrez

Weather History for PASI - December, 2012

Change the Weather History Date:

Sunday, December 23, 2012

  Actual Average Record
Temperature  
Mean Temperature 31 °F -  
Max Temperature 34 °F 41 °F 107 °F (2003)
Min Temperature 28 °F 33 °F 11 °F (1971)
Degree Days  
Heating Degree Days 34    
Moisture  
Dew Point 19 °F    
Average Humidity 63    
Maximum Humidity 75    
Minimum Humidity 53    
Precipitation  
Precipitation 0.00 in - - ()
Sea Level Pressure  
Sea Level Pressure 29.70 in    
Wind  
Wind Speed 6 mph (ESE)    
Max Wind Speed 21 mph    
Max Gust Speed 26 mph    
Visibility 10 miles    
Events Snow    
Averages and records for this station are not official NWS values.
T = Trace of Precipitation, MM = Missing Value Source: NWS Daily Summary

Daily Weather History Graph

Daily Weather History Graph

Search for Another Location

Airport or City:

Trip Planner

Search our weather history database for the weather conditions in past years. The results will help you decide how hot, cold, wet, or windy it might be!

Date:

Astronomy

Dec. 23, 2012 Rise Set
Actual Time 8:39 AM AKST 3:22 PM AKST
Civil Twilight 7:50 AM AKST 4:11 PM AKST
Nautical Twilight 6:59 AM AKST 5:02 PM AKST
Astronomical Twilight 6:12 AM AKST 5:49 PM AKST
Moon 12:41 PM AKST (12/23) 4:01 AM AKST (12/23)
Length of Visible Light 8h 21m
Length of Day
6h 42m
Waxing Gibbous, 82% of the Moon is Illuminated
Dec 23
Waxing Gibbous
Dec 28
Full
Jan 4
Last Quarter
Jan 11
New
Jan 18
First Quarter

Hourly Weather History & Observations

Time (AKST) Temp. Windchill Dew Point Humidity Pressure Visibility Wind Dir Wind Speed Gust Speed Precip Events Conditions
12:53 AM 28.0 °F - 21.0 °F 75% 29.64 in 10.0 mi Calm Calm - N/A   Overcast
1:53 AM 30.0 °F 25.2 °F 19.9 °F 66% 29.64 in 10.0 mi West 4.6 mph - N/A   Overcast
3:53 AM 28.9 °F 22.8 °F 17.1 °F 61% 29.65 in 10.0 mi East 5.8 mph - N/A   Overcast
4:53 AM 30.0 °F - 17.1 °F 59% 29.66 in 10.0 mi Calm Calm - N/A   Overcast
5:53 AM 28.9 °F - 18.0 °F 64% 29.66 in 10.0 mi Calm Calm - N/A   Overcast
6:53 AM 28.9 °F 23.9 °F 18.0 °F 64% 29.67 in 10.0 mi ESE 4.6 mph - N/A   Mostly Cloudy
7:53 AM 28.0 °F - 19.9 °F 72% 29.68 in 10.0 mi Calm Calm - N/A   Mostly Cloudy
8:53 AM 30.0 °F 25.2 °F 16.0 °F 56% 29.69 in 10.0 mi East 4.6 mph - N/A   Overcast
9:53 AM 30.0 °F - 16.0 °F 56% 29.68 in 10.0 mi Calm Calm - N/A   Scattered Clouds
10:53 AM 30.9 °F 27.5 °F 19.9 °F 64% 29.69 in 10.0 mi South 3.5 mph - N/A   Mostly Cloudy
11:53 AM 30.2 °F - 19.9 °F 66% 29.69 in 10.0 mi Calm Calm - N/A   Mostly Cloudy
12:53 PM 30.2 °F 19.8 °F 15.1 °F 53% 29.68 in 10.0 mi East 13.8 mph 20.7 mph N/A   Mostly Cloudy
1:53 PM 30.0 °F 18.3 °F 16.0 °F 56% 29.69 in 10.0 mi East 17.3 mph 23.0 mph N/A   Mostly Cloudy
2:53 PM 30.9 °F 24.3 °F 18.0 °F 59% 29.69 in 10.0 mi East 6.9 mph - N/A   Mostly Cloudy
3:53 PM 32.0 °F 28.7 °F 18.0 °F 56% 29.69 in 10.0 mi NE 3.5 mph - N/A   Mostly Cloudy
4:53 PM 32.0 °F 21.6 °F 19.9 °F 61% 29.70 in 10.0 mi ESE 15.0 mph 21.9 mph N/A   Overcast
5:01 PM 32.0 °F 22.1 °F 19.4 °F 60% 29.70 in 10.0 mi East 13.8 mph 23.0 mph N/A   Overcast
5:53 PM 30.9 °F 18.4 °F 21.9 °F 69% 29.71 in 8.0 mi ESE 20.7 mph 25.3 mph 0.00 in Snow Light Snow
6:53 PM 33.1 °F 22.6 °F 21.9 °F 64% 29.72 in 10.0 mi ESE 16.1 mph 21.9 mph 0.00 in   Overcast
7:53 PM 32.0 °F 20.1 °F 21.0 °F 64% 29.74 in 10.0 mi ESE 19.6 mph 26.5 mph N/A   Overcast
8:53 PM 33.1 °F 21.5 °F 21.9 °F 64% 29.77 in 10.0 mi ESE 19.6 mph - N/A   Overcast
9:53 PM 34.0 °F 23.4 °F 21.9 °F 61% 29.79 in 10.0 mi ESE 17.3 mph - N/A   Mostly Cloudy
10:53 PM 32.0 °F 20.8 °F 23.0 °F 69% 29.80 in 10.0 mi ESE 17.3 mph 25.3 mph N/A   Overcast
11:53 PM 33.1 °F 22.6 °F 23.0 °F 66% 29.83 in 10.0 mi SE 16.1 mph - N/A   Overcast